Find Starlink 35968

NORAD ID: 66636 Int'l Des: 2025-271 Owner: SPXS Country: US Constellation: starlink operational
LEOCIRCULAR

Live Position

Loading 3D Globe...

About Starlink 35968

Description loading...

Upcoming Passes

Passes for default location (London). Set your location on the main map for personalized predictions.

Altitude History

Loading altitude history...

Two-Line Element Set

1 66636U 25271V 26105.91667192 .00006098 00000-0 21784-3 0 9997
2 66636 53.1604 327.2080 0001440 92.5811 267.5355 15.30199329 23263
Epoch: Apr 15, 2026 • Age: 18 hours

Current Status

Altitude 477.5 km
Velocity 7.63 km/s
Sub-Earth Point 37.50°N, 26.92°E
Launch Date Nov 23, 2025
Age 0.3 years
Type internet

Technical Details

Classification Payload
Mass 575.00 kg
Dry Mass 530.00 kg
Total Mass 575.00 kg
Length 0.30 m
Diameter 4.10 m
Span 29.00 m
Shape Box + pan
Manufacturer SPXS
Bus Type Starlink V2MO
Phase Status In Orbit
Owner/State SPXS/US

Most Searched